Regional Weather Roundup
Issued by NWS

Home | Current Version | Previous Version | Text Only | Print | Product List | Glossary Off
Versions: 1 2 3 4 5 6 7 8 9 10 11 12 13 14 15 16 17 18 19 20 21 22 23 24 25 26 27 28 29 30 31 32 33 34 35 36 37 38 39 40 41 42 43 44 45 46 47 48 49 50

619
ASUS43 KMPX 121301
RWRMN
WEATHER ROUNDUP FOR MINNESOTA
NATIONAL WEATHER SERVICE TWIN CITIES/CHANHASSEN MN
700 AM CST FRI FEB 12 2016


NOTE: "FAIR" INDICATES FEW OR NO CLOUDS BELOW 12,000 FEET WITH NO
SIGNIFICANT WEATHER AND/OR OBSTRUCTIONS TO VISIBILITY. N/A MEANS
CURRENT SKY AND/OR WEATHER CONDITIONS ARE NOT AVAILABLE.

MNZ060>063-068>070-121400-
   Twin Cities Metro

CITY           SKY/WX    TMP DP  RH WIND       PRES   REMARKS
TWIN CITIES    PTCLDY     7   1  76 NW13      30.31R WCI  -9
ST PAUL        PTCLDY     9   1  70 NW14      30.31R WCI  -7
CRYSTAL        PTCLDY     7   0  73 NW16G22   30.30R WCI -11
BLAINE         CLEAR      9   3  78 NW12      30.29R WCI  -6
LAKEVILLE      CLEAR      7   1  78 NW12      30.29R WCI  -9
EDEN PRAIRIE   CLEAR      8   1  73 NW12      30.30R WCI  -7
SOUTH ST PAUL  CLEAR     10   2  72 NW14      30.30R WCI  -7
LAKE ELMO      FAIR       9   3  78 NW12      30.28R WCI  -6
$$
MNZ001>005-007-008-013>017-022>024-027-028-121400-
   Northwest Minnesota

CITY           SKY/WX    TMP DP  RH WIND       PRES   REMARKS
BEMIDJI        MOCLDY    -8 -12  80 NW13      30.36R WCI -28
HALLOCK        CLOUDY    -8 -15  71 N14       30.54R WCI -28
ROSEAU         CLEAR    -11 -18  70 NW12      30.47R WCI -31
WARROAD        CLEAR    -11 -18  70 NW9       30.44R WCI -29
THIEF RVR FALL CLEAR     -6 -18  54 N14G23    30.46R WCI -26
CROOKSTON      CLOUDY    -4  -9  77 N14       30.52R WCI -24
FOSSTON        PTCLDY    -9 -15  77 NW12      30.43R WCI -29
DETROIT LAKES  CLOUDY    -4  -8  84 N14       30.40R WCI -24
MOORHEAD       PTCLDY     0  -8  71 N17       30.50R WCI -21
PARK RAPIDS    CLEAR     -4 -11  72 NW12      30.33R WCI -22
MAHNOMEN       FAIR      -8 -13  79 NW12      30.41R WCI -27
$$
MNZ006-009>011-018-025>026-121400-
   North Central Minnesota

CITY           SKY/WX    TMP DP  RH WIND       PRES   REMARKS
BAUDETTE       CLEAR    -12 -19  71 NW16      30.37R WCI -35
FLAG ISLAND    CLEAR    -13 -18  77 NW17      30.41R WCI -38
INTL FALLS     CLEAR    -11 -17  75 NW12      30.31R WCI -31
WASKISH        CLEAR     -9 -15  77 NW10      30.38R WCI -28
LONGVILLE      CLEAR     -6 -11  77 NW5G20    30.32R WCI -17
GRAND RAPIDS   CLEAR     -6 -13  71 NW23G29   30.25R WCI -31
CRANE LAKE     PTCLDY    -9 -15  77 N8G16     30.28R WCI -26
ORR            MOCLDY    -9 -15  77 NW9       30.23R WCI -27
COOK           MOCLDY    -8 -13  77 NW7       30.24R WCI -22
WALKER         FAIR      -6 -12  74 NW14G24   30.32R WCI -26
$$
MNZ012-019>021-037-121400-
   Northeast Minnesota

CITY           SKY/WX    TMP DP  RH WIND       PRES   REMARKS
DULUTH         PTCLDY    -1 -10  65 NW20G32   30.16R WCI -23
ELY            CLEAR     -8 -13  77 NW10G20   30.18R HAZE    WCI -26
HIBBING        CLOUDY    -7 -12  79 NW21      30.23R HAZE    WCI -32
EVELETH        PTCLDY    -2  -9  71 NW15G26   30.22R WCI -22
DULUTH HARBOR  CLEAR      3  -6  66 W14G20    30.27R WCI -15
TWO HARBORS    PTCLDY     1  -8  66 NW8G17    30.16R WCI -12
SILVER BAY     CLEAR      0 -11  60 NW9G20    30.14R WCI -16
GRAND MARAIS     N/A     -1 -12  59 VRB5      30.19R WCI -11
G MARAIS ARPRT CLOUDY    -8 -17  65 NW15G21   30.01R HAZE    WCI -29
$$
MNZ029>031-032-039>041-046>048-054>057-064-121400-
   West Central Minnesota

CITY           SKY/WX    TMP DP  RH WIND       PRES   REMARKS
FERGUS FALLS   CLEAR      0  -8  71 N13G18    30.48R WCI -18
WHEATON        CLOUDY     5  -2  72 NW14G21   30.48R WCI -12
MORRIS         CLEAR      3  -2  78 NW15      30.41R WCI -15
ALEXANDRIA     CLEAR      1  -8  66 NW14      30.35R WCI -17
ELBOW LAKE     FAIR       1  -4  79 W14       30.42R WCI -17
WADENA         CLEAR     -2  -9  71 NW14      30.35R WCI -21
GLENWOOD       CLEAR      1  -6  71 NW13      30.36R WCI -16
APPLETON       CLEAR      7   0  72 N17       30.43R WCI -12
BENSON         CLEAR      3  -2  78 N17       30.40R WCI -17
ORTONVILLE     CLEAR      5  -6  61 N17       30.43R WCI -14
MADISON        CLOUDY     9   0  66 N18       30.43R WCI -10
WILLMAR        FAIR       7   1  78 NW14G21   30.38R WCI -10
$$
MNZ033>034-036-042>043-049>051-058-059-121400-
   Central Minnesota

CITY           SKY/WX    TMP DP  RH WIND       PRES   REMARKS
ST CLOUD       PTCLDY     3  -3  76 NW13      30.32R WCI -14
SAUK CENTRE    FAIR       1  -6  75 NW16G22   30.34R WCI -19
PAYNESVILLE    CLEAR      4  -3  75 NW9       30.35R WCI -11
AITKIN         PTCLDY     1  -8  66 NW7G16    30.27R WCI -11
PINE RIVER     CLEAR     -2  -8  78 NW12G17   30.34R WCI -20
BRAINERD       CLEAR      0  -7  72 NW14      30.31R WCI -19
STAPLES        CLEAR     -2  -8  78 NW14      30.33R WCI -21
LONG PRAIRIE   FAIR       1  -6  71 W12G17    30.32R WCI -15
LITTLE FALLS   CLEAR      3  -4  72 NW5       30.33R WCI  -6
LITCHFIELD     CLEAR      7   1  78 NW12G20   30.34R WCI  -9
BUFFALO        PTCLDY     5   0  77 NW12      30.33R WCI -10
MAPLE LAKE     PTCLDY     6   1  82 NW10      30.34R WCI  -9
$$
MNZ037-044-045-052-053-121400-
   East Central Minnesota

CITY           SKY/WX    TMP DP  RH WIND       PRES   REMARKS
PRINCETON      PTCLDY     5  -2  72 NW10      30.30R WCI -10
MORA           CLEAR      5  -4  66 NW10      30.29R WCI -10
CAMBRIDGE        N/A      7  -2  66 NW12G17   30.28R WCI  -9
RUSH CITY      MOCLDY     6  -1  72 NW9G17    30.28R WCI  -8
MOOSE LAKE     MOCLDY     3  -4  72 NW7       30.23R WCI  -9
HINCKLEY       FAIR       5   0  78 NW7       30.26R WCI  -7
CLOQUET        PTCLDY     0  -8  71 NW10      30.20R WCI -17
MCGREGOR       CLEAR      1  -6  71 NW15      30.26R WCI -18
$$
MNZ071>073-080-081-089-090-097-098-121400-
   Southwest Minnesota

CITY           SKY/WX    TMP DP  RH WIND       PRES   REMARKS
MONTEVIDEO     CLEAR      7   1  78 N20G25    30.42R WCI -13
GRANITE FALLS  CLEAR     10   3  72 NW13      30.41R WCI  -5
CANBY          LGT SNOW  14   9  81 N18G25    30.43R WCI  -3
MARSHALL       FLURRIES  10   4  76 N20       30.39R WCI  -9
REDWOOD FALLS  CLEAR      9   2  73 NW18G26   30.38R WCI -10
OLIVIA         CLEAR     10   5  79 NW16G23   30.37R WCI  -7
PIPESTONE      FLURRIES  12   3  67 N9G20     30.35R WCI   0
WINDOM         LGT SNOW   9   5  85 NW17      30.33R WCI -10
WORTHINGTON    CLOUDY    10   3  72 N18       30.35R WCI  -8
JACKSON        CLOUDY    10   5  79 NW15      30.32R WCI  -6
TRACY          FLURRIES  11   7  83 N16G22    30.37R WCI  -6
SLAYTON        FLURRIES   9   6  91 NW13      30.35R WCI  -7
$$
MNZ065>067-074>077-082>085-091>093-121400-
   South Central Minnesota

CITY           SKY/WX    TMP DP  RH WIND       PRES   REMARKS
MANKATO        CLEAR     10   1  67 NW20G26   30.32R WCI  -8
NEW ULM        CLEAR      9   3  78 NW16      30.34R WCI  -9
ST JAMES       CLEAR     10   7  85 NW16      30.35R WCI  -7
FAIRMONT       CLOUDY    10   3  72 NW16G22   30.31R WCI  -7
GLENCOE        CLEAR      9   4  80 NW12      30.33R WCI  -6
FARIBAULT      CLEAR      9   1  72 NW15      30.29R WCI  -8
OWATONNA       MOCLDY    10   3  72 NW12      30.28R WCI  -4
WASECA         CLEAR     12   5  73 NW22      30.31R WCI  -7
ALBERT LEA     CLOUDY    12   9  85 NW14      30.26R WCI  -3
$$
MNZ078>079-086>088-094>096-121400-
   Southeast Minnesota

CITY           SKY/WX    TMP DP  RH WIND       PRES   REMARKS
ROCHESTER      MOCLDY     9   4  80 NW15      30.22R WCI  -8
RED WING       CLEAR     10   1  67 NW10G16   30.26R WCI  -3
STANTON        CLEAR     10   3  75 NW16      30.28R WCI  -8
DODGE CENTER   PTCLDY     9   3  78 NW15G21   30.23R WCI  -8
WINONA         CLOUDY    16  10  79 NW18      30.24S WCI  -1
AUSTIN         FLURRIES  10   9  92 NW15G23   30.24R WCI  -6
PRESTON        FLURRIES   9   5  86 NW12      30.21R WCI  -6
$$
ABBREVIATIONS USED IN REMARKS
   TC - TEMPERATURES IN CELSIUS
  WCI - WIND CHILL INDEX
   HX - HEAT INDEX
  VSB - VISIBILITY
$$




USA.gov is the U.S. government's official web portal to all federal, state and local government web resources and services.